Vorticity
9 10 11 9 5 4 6 9 10 8 8 9 11 12 10 7 6 6 5 5 5 6 5 4 5 6 6 5 6 6 6 7 7 8 9 8 7 6 6 7 8 10
10 9 10 8 6 7 7 7 10 10 11 13 12 10 6 6 6 5 5 5 6 6 5 5 6 5 5 5 6 7 6 6 7 7 7 7 7 6 6 6 8 9
10 11 12 11 9 7 5 6 10 13 14 13 9 6 6 6 6 5 5 6 6 6 6 5 5 5 5 6 7 7 6 5 5 5 6 7 7 6 6 6 7 9
11 14 15 12 7 5 6 8 12 15 13 9 6 5 6 5 5 5 6 6 6 6 5 5 5 5 6 7 7 6 5 4 4 4 5 6 7 6 5 6 7 9
10 12 13 10 4 5 11 12 13 14 10 7 6 7 6 5 5 7 6 6 6 5 5 5 5 6 7 7 6 5 4 4 4 3 3 5 7 7 5 6 7 8
6 9 12 9 5 7 12 13 12 10 7 7 7 6 5 5 6 7 6 5 5 5 5 5 6 6 6 5 4 4 3 4 4 4 3 4 6 7 6 5 6 8
7 13 14 9 8 10 11 10 9 8 7 8 7 5 5 7 7 6 5 5 5 5 5 5 5 4 3 3 3 3 3 3 4 4 3 3 5 7 7 5 6 8
9 16 15 10 9 9 8 8 8 8 8 8 7 6 6 6 5 4 4 5 5 5 5 4 3 2 2 3 2 2 2 3 4 4 4 4 5 7 7 5 6 8
10 14 13 10 7 6 7 8 8 8 8 8 7 6 6 5 4 5 5 5 5 4 3 3 3 3 2 3 2 2 2 2 4 5 5 4 4 6 7 6 6 8
13 14 11 8 6 6 8 8 9 9 9 8 7 5 4 5 6 6 6 5 3 2 2 2 2 2 2 2 2 1 2 3 5 6 5 4 4 6 7 5 5 7
12 13 10 7 5 6 7 8 8 9 7 6 5 4 6 7 7 6 5 3 1 1 2 2 1 2 1 1 2 2 3 5 6 6 5 4 5 6 7 5 4 6
11 13 12 9 7 7 8 8 7 7 7 5 4 6 8 8 6 5 3 2 1 1 1 1 1 1 1 1 2 2 5 7 7 7 6 5 5 6 6 5 4 5
11 14 13 11 10 8 8 8 6 6 6 4 6 9 9 7 5 4 3 1 1 1 1 1 1 2 2 2 2 4 7 8 8 7 6 5 6 6 6 5 4 5
11 14 13 11 10 9 8 7 6 6 6 6 8 9 7 6 4 4 3 2 2 2 2 2 2 3 3 3 4 6 8 9 9 7 6 6 7 6 6 4 3 5
10 12 12 10 9 8 8 7 6 6 7 8 9 7 6 5 4 4 4 3 3 2 2 3 3 3 3 4 7 9 9 10 9 7 6 6 7 7 6 4 4 5
8 9 10 10 9 8 8 7 7 7 7 7 7 5 5 4 4 4 4 3 3 3 3 3 3 4 5 7 9 10 10 10 9 7 6 7 7 7 6 4 4 4
7 7 8 8 8 8 7 6 6 6 5 5 5 5 5 5 5 4 3 3 3 3 3 3 4 6 8 10 10 10 9 9 9 7 6 8 8 7 6 5 4 5
6 6 7 7 8 7 6 6 6 5 4 5 5 5 5 4 4 3 3 3 3 4 4 5 8 10 10 10 9 9 9 9 8 7 7 8 8 7 6 5 4 5
6 6 7 7 7 6 6 6 6 5 5 4 4 4 4 3 3 3 4 4 4 5 6 8 10 10 8 8 8 9 10 9 8 9 9 9 8 7 6 5 4 6
7 6 7 7 7 6 6 6 6 6 6 6 5 5 5 4 5 5 6 6 6 7 9 10 9 7 7 8 8 10 11 10 8 9 10 9 8 7 6 5 5 6
8 7 7 6 6 6 6 7 7 7 7 7 6 6 6 7 7 8 7 7 8 9 9 8 7 7 8 10 10 10 13 13 9 8 10 10 8 7 6 5 6 8
8 7 7 6 7 7 7 8 7 7 8 8 8 9 9 8 8 8 7 7 8 8 7 7 8 9 10 11 9 7 12 15 10 7 9 9 8 9 7 6 7 8
7 7 7 7 7 7 7 7 7 7 8 8 8 8 8 8 8 8 7 7 7 7 7 8 10 10 10 10 8 7 12 16 13 10 12 12 8 5 5 7 8 7
8 8 8 8 8 7 8 8 7 7 7 7 7 7 7 8 7 6 7 6 6 7 9 10 10 10 11 10 8 9 13 13 9 9 14 17 13 7 8 11 9 5
8 8 8 8 7 7 7 8 7 7 7 7 7 7 7 6 6 6 6 6 7 9 10 10 11 11 11 9 7 11 14 11 7 8 13 22 26 18 13 11 6 5
7 7 6 4 5 6 7 8 7 7 7 6 6 5 5 5 6 7 7 8 9 11 11 12 12 10 9 8 8 13 16 10 7 7 8 15 19 13 7 6 5 7
Height
5807 5808 5809 5809 5810 5810 5810 5811 5811 5812 5812 5812 5812 5812 5812 5813 5814 5814 5814 5814 5814 5813 5813 5812 5812 5811 5811 5810 5809 5808 5806 5805 5803 5801 5799 5797 5795 5793 5791 5789 5787 5784
5806 5807 5807 5808 5808 5808 5809 5809 5809 5810 5810 5810 5810 5810 5811 5812 5812 5812 5812 5812 5812 5811 5811 5811 5810 5810 5809 5808 5807 5805 5804 5802 5800 5798 5796 5794 5793 5791 5788 5786 5783 5781
5805 5805 5805 5805 5806 5806 5806 5807 5808 5808 5808 5808 5809 5809 5810 5810 5810 5810 5810 5810 5810 5809 5809 5809 5808 5808 5807 5806 5804 5803 5801 5799 5797 5795 5794 5792 5790 5788 5786 5783 5781 5778
5803 5803 5803 5803 5803 5804 5804 5805 5805 5806 5806 5807 5807 5808 5808 5808 5808 5808 5808 5808 5808 5808 5807 5807 5806 5805 5805 5803 5802 5800 5798 5796 5795 5793 5791 5789 5787 5785 5783 5780 5778 5775
5801 5801 5801 5801 5801 5802 5803 5803 5803 5804 5804 5805 5805 5806 5806 5806 5806 5806 5806 5806 5806 5806 5805 5805 5804 5803 5802 5801 5799 5797 5796 5794 5792 5790 5789 5787 5784 5782 5780 5778 5775 5773
5799 5799 5799 5799 5799 5800 5801 5801 5801 5802 5803 5803 5804 5804 5804 5804 5804 5804 5804 5804 5804 5804 5803 5803 5802 5801 5800 5798 5797 5795 5793 5791 5789 5788 5786 5784 5782 5780 5777 5775 5773 5770
5797 5797 5797 5797 5797 5798 5799 5799 5800 5800 5801 5801 5802 5802 5802 5802 5802 5802 5802 5802 5802 5802 5801 5800 5800 5798 5797 5796 5794 5792 5790 5789 5787 5785 5783 5781 5779 5777 5775 5772 5770 5768
5795 5795 5795 5795 5795 5796 5797 5797 5798 5798 5799 5799 5800 5800 5800 5800 5800 5800 5800 5800 5800 5799 5799 5798 5797 5796 5794 5793 5791 5790 5788 5786 5784 5782 5780 5778 5776 5774 5772 5770 5767 5765
5792 5792 5793 5793 5794 5794 5795 5795 5796 5796 5797 5797 5798 5798 5798 5798 5798 5798 5798 5798 5797 5797 5796 5795 5794 5793 5792 5790 5789 5787 5785 5783 5781 5780 5778 5776 5773 5771 5769 5767 5764 5762
5790 5790 5790 5791 5791 5792 5793 5793 5794 5794 5795 5795 5795 5796 5796 5796 5796 5796 5796 5795 5795 5794 5793 5792 5791 5790 5789 5788 5786 5784 5782 5781 5779 5777 5775 5773 5771 5769 5766 5764 5761 5759
5787 5788 5788 5789 5789 5790 5791 5791 5792 5792 5793 5793 5793 5793 5793 5793 5793 5793 5793 5793 5792 5791 5791 5790 5789 5788 5786 5785 5783 5781 5780 5778 5776 5774 5772 5770 5768 5765 5763 5761 5758 5756
5785 5785 5786 5786 5787 5787 5788 5789 5789 5790 5790 5791 5791 5791 5791 5791 5791 5791 5790 5790 5789 5788 5788 5787 5786 5785 5783 5782 5780 5778 5776 5774 5773 5771 5769 5767 5764 5762 5760 5758 5755 5753
5783 5783 5783 5784 5784 5785 5786 5786 5787 5788 5788 5789 5789 5788 5788 5788 5788 5788 5787 5787 5786 5785 5785 5784 5783 5782 5780 5779 5777 5775 5773 5771 5769 5767 5765 5763 5761 5759 5757 5754 5752 5749
5780 5780 5781 5781 5782 5782 5783 5784 5784 5785 5786 5786 5786 5786 5785 5785 5785 5784 5784 5784 5783 5782 5782 5781 5780 5778 5777 5775 5773 5771 5769 5767 5765 5763 5762 5760 5758 5755 5753 5751 5749 5746
5778 5778 5778 5779 5779 5780 5780 5781 5782 5782 5783 5783 5783 5783 5782 5782 5782 5781 5781 5781 5780 5779 5778 5777 5776 5775 5773 5772 5769 5767 5765 5764 5762 5760 5758 5756 5754 5752 5750 5747 5745 5743
5775 5776 5776 5776 5777 5777 5778 5778 5779 5779 5780 5780 5780 5780 5779 5779 5779 5778 5778 5777 5777 5776 5775 5774 5773 5771 5769 5767 5765 5763 5761 5760 5758 5756 5754 5752 5750 5748 5746 5744 5742 5739
5773 5773 5773 5773 5774 5774 5775 5775 5776 5776 5777 5777 5777 5777 5776 5776 5775 5775 5775 5774 5773 5772 5771 5770 5769 5767 5765 5763 5761 5759 5757 5756 5754 5752 5750 5748 5746 5744 5742 5740 5738 5736
5770 5770 5770 5771 5771 5771 5772 5772 5773 5773 5773 5774 5774 5773 5773 5773 5772 5772 5771 5770 5770 5769 5767 5766 5764 5763 5761 5759 5757 5755 5753 5752 5750 5748 5746 5744 5742 5740 5738 5736 5734 5732
5767 5767 5767 5768 5768 5768 5769 5769 5770 5770 5770 5770 5770 5770 5770 5769 5768 5768 5767 5766 5766 5764 5763 5762 5760 5758 5756 5755 5753 5751 5749 5747 5745 5743 5741 5740 5738 5736 5734 5732 5730 5728
5764 5764 5764 5765 5765 5765 5766 5766 5766 5767 5767 5767 5767 5766 5766 5765 5765 5764 5763 5762 5761 5760 5759 5757 5756 5754 5752 5750 5749 5746 5744 5743 5741 5739 5737 5735 5734 5732 5730 5728 5726 5724
5760 5761 5761 5761 5762 5762 5762 5763 5763 5763 5763 5763 5763 5763 5762 5762 5761 5760 5759 5758 5757 5756 5754 5753 5751 5749 5748 5746 5744 5742 5740 5738 5736 5735 5733 5731 5730 5728 5726 5724 5722 5720
5757 5757 5758 5758 5758 5759 5759 5759 5759 5760 5760 5760 5759 5759 5758 5758 5757 5756 5755 5753 5752 5751 5750 5748 5747 5745 5744 5742 5740 5738 5736 5734 5732 5730 5728 5727 5725 5723 5721 5720 5718 5716
5753 5754 5754 5755 5755 5756 5756 5756 5756 5756 5756 5756 5756 5755 5754 5753 5752 5751 5750 5749 5748 5747 5745 5744 5742 5741 5740 5738 5736 5734 5732 5730 5728 5726 5724 5722 5720 5719 5717 5716 5714 5713
5750 5751 5751 5752 5752 5752 5753 5753 5753 5753 5752 5752 5751 5751 5750 5749 5748 5747 5746 5745 5743 5742 5741 5739 5738 5737 5735 5734 5732 5730 5728 5726 5724 5722 5720 5718 5716 5714 5713 5712 5711 5709
5747 5747 5748 5748 5749 5749 5749 5749 5749 5749 5749 5748 5747 5747 5746 5744 5743 5742 5741 5740 5739 5738 5736 5735 5734 5732 5731 5729 5728 5726 5724 5722 5720 5718 5716 5714 5712 5711 5710 5708 5707 5705
5743 5744 5744 5745 5745 5745 5745 5745 5745 5744 5744 5744 5743 5742 5741 5740 5739 5738 5737 5736 5734 5733 5732 5730 5729 5728 5726 5725 5723 5721 5719 5717 5716 5714 5713 5710 5709 5707 5706 5705 5703 5701